ToS 板


LINE

看板 ToS  RSS
來源 http://tos.hehagame.com/Category_show.php?ide=479 隊長技 人類及妖精類攻擊2.5倍 主動技 1回合內不能消除火符石,下一回合提升全隊1.5倍攻擊力 這邊的消息來源會比較準確嗎?? --



※ 發信站: 批踢踢實業坊(ptt.cc)
◆ From: 123.194.73.46
1F:→ wolfwolf:人類2.5也太OP 12/20 22:22
2F:推 KYO7291:夭壽 三巫遊俠有可能起飛? 12/20 22:22
3F:→ iamsocool:禦五家飛起來了~~!! 12/20 22:22
4F:噓 caca5566:主角啊... 12/20 22:22
5F:推 PTTzzZZ:主角飛飛 12/20 22:22
6F:推 moonblack:遊俠等很久了 12/20 22:23
7F:推 l1ViE:薩魯曼表示: 12/20 22:23
8F:推 hank61204:!!!!!!!!!!!!!!!!!!!!!!!!!!!! 12/20 22:23
9F:→ hank61204:好像很神欸!! 12/20 22:23
10F:推 setzer:起飛囉 12/20 22:23
11F:→ choasX:如果是真的就威了! 12/20 22:23
12F:推 LoWind:....快點解放火煮! 12/20 22:23
13F:推 curryhats:火隊水瓶? 12/20 22:24
14F:推 cola99t:起飛啦~~~~~ 12/20 22:24
15F:推 luke2:六星五主起飛不知道多久了XD 12/20 22:24
16F:噓 Lizardon:乾 沒練遊俠隊 12/20 22:24
17F:推 ZSEC:人妖隊!! 12/20 22:24
18F:→ gn00452220:人類也起飛了............. 12/20 22:24
19F:推 vedali:人妖人妖~~~~ 12/20 22:24
20F:→ c871111116:木遊要正式失業了嗎 12/20 22:24
21F:→ wait945:可以組老頭妲己隊 中間塞遊俠御五家@@ 12/20 22:24
22F:推 iamsocool:飛起來昇到太空去了阿 XD 12/20 22:25
23F:→ c871111116:話說這個主動技可否取代火巫的位置? 12/20 22:25
24F:推 xxxz:70000 一隻我也會拼@@@@ 12/20 22:25
25F:→ c871111116:畢竟火巫增傷還是有點痛 12/20 22:25
26F:推 ssmark321:空間35地獄級卡,主動技有點不強 12/20 22:25
27F:推 yp60802:超威耶... 12/20 22:25
28F:推 hank61204:人馬哭哭 12/20 22:25
29F:→ gn00452220:三巫水瓶老人 傷害會不會突破天際阿 12/20 22:26
30F:噓 paj12363:如果是真的 三巫就要起飛的 12/20 22:26
31F:推 vance6313:L 聖誕老人 三巫+光遊 F 妲己 BJ4 12/20 22:26
32F:推 benlinskyin:人妖隊OP 12/20 22:26
33F:→ yp60802:這隻配波比好像滿好玩XD 12/20 22:26
34F:推 chjimmy:主動技是指火符石不會發動消除嗎?還是銷到就失效? 12/20 22:26
35F:→ yp60802:失效 12/20 22:26
36F:推 Rindou:6.25人妖隊 4.0新主流 強勢登場 12/20 22:26
37F:推 curryhats:老頭+火遊+火煮+火巫+木巫+老頭 ? 12/20 22:26
38F:推 Grammy:木遊真的完全一點用都沒了 12/20 22:27
39F:推 qls:這不是創作嗎? 12/20 22:27
40F:→ Lizardon:這主動技是只能用一回合吧 怎麼取代火巫= = 12/20 22:27
41F:推 lu3yao:木遊: 喂 過份喔 搶飯碗 12/20 22:27
42F:推 c871111116:但火巫你打後面關卡也不能一直開著啊... 12/20 22:27
43F:→ kangta2030:他媽的超威 還可搭迪蛋 12/20 22:27
44F:→ lu3yao:話說人類不只有三巫 還有三主角啊 比美強權的回復力 12/20 22:27
45F:推 moonblack:樓上不要忘記遊俠 12/20 22:28
46F:→ Lizardon:火巫不只增傷還有落珠加成 是要取代啥 12/20 22:28
47F:推 KYO7291:木遊 真的要失業了 12/20 22:28
48F:推 dp44:聖誕老人 三巫 火主 +妲己/聖誕老人 12/20 22:29
49F:推 alonelykid:木遊表示:你們這群拍狼 12/20 22:29
50F:推 iamsocool:L 老人 三巫 + 五星鄧肯 F 老人 我覺得理想陣容 12/20 22:29
51F:推 curryhats:木遊還不能消全體 已失業 12/20 22:29
52F:推 Crushredkiss:老人L 三巫 解放五主 老人F QAQ 12/20 22:29
53F:推 zxlt3722:聖誕老人+三主角+木巫+妲己 傷害與回覆兼具組合 12/20 22:29
54F:推 xxxz:妲己 二巫 暗主 隨意 老頭 ...人妖全吃。 12/20 22:29
55F:推 luke2:放火隊就強迫你斷印啊 除非你沒放火希 12/20 22:30
56F:推 yandrew:原來就是要用這隊雜色農7封阿 我真的打太快了...zzz 12/20 22:30
57F:推 j056237:不覺得老人配妲己超OP的嗎? 12/20 22:31
58F:推 gary360:而且這三圍看起應該不錯 12/20 22:32
59F:推 hank61204:靠...我人馬該不會要失業了吧 快拼到滿等了欸 12/20 22:32
60F:→ cola99t:樓上:我今天剛滿等.... 12/20 22:32
61F:推 katsumoto:XD 如果是真的話,下幾周暗加倍搞不好就來妲己加倍回收 12/20 22:32
62F:推 shinobilin:木遊:幹 12/20 22:32
63F:推 vance6313:人馬應該不會 可以配到神族 12/20 22:32
64F:推 dp44:老頭 水火巫 火主 三太子+ 妲己! 12/20 22:32
65F:推 miayao417:母哈哈 哥解放了3主了 爽 12/20 22:32
66F:→ katsumoto:這次活動沒回收到的石頭阿 (暗黑中) 12/20 22:32
67F:→ gn00452220:人馬主動計打單體還是很強的 12/20 22:33
68F:推 andy3580:這隻放火或另組人類隊都蠻強的 12/20 22:33
69F:推 rollen:不是三巫起飛,都已經在飛了,現在要衝破大氣層了 12/20 22:34
70F:推 peter2354600:人馬怎麼會失業,這個隊長技只有對人妖有效 12/20 22:34
71F:推 chenchunjui:放火? 你沒看清楚? 12/20 22:34
72F:推 ayabf:設計給火巫 火主 三太子的吧!!差第五人了 12/20 22:34
73F:推 RogueKnight:耶三巫滿等爽 12/20 22:34
74F:推 GLHF:人妖隊... 12/20 22:34
75F:→ catstupid:單體來看,人馬還是比較高 12/20 22:34
76F:推 hank61204:是說她二點五倍完全沒副作用也太爽= =" 12/20 22:34
77F:推 zxp86218:老人妖隊 12/20 22:34
78F:推 acopika:人類四主隊 五主回復力組隊加成 高傷爆發+6.25op 12/20 22:34
79F:推 QJP0518:人馬隊隊員一堆人類啊 XDDD 12/20 22:35
80F:→ ayabf:放火隊讓你開三太子後技能好排珠阿! 火珠不能消 12/20 22:35
81F:推 Crushredkiss:消到火就沒有1.5倍的意思嗎 12/20 22:35
82F:→ peter2354600:也是啦XDDD 不過人馬可以配神族就是了 12/20 22:35
83F:→ acopika:牛王被鴨王搶走隊長 現在連組妖精的飯碗都丟了 12/20 22:35
84F:→ gary360:是消都不能消 12/20 22:36
85F:→ jinkela1:牛王:我都沒特異功能了 還留在這裡惹人嫌嗎 12/20 22:36
86F:推 train60125:老人(L)+三主角+暗蛋+妲己(F) 有傷害有回復有控場 12/20 22:37
87F:→ wwwsamyoui12:這樣就叫起飛...? 12/20 22:37
88F:推 hhpsjoe:火巫 火主 三太子 火蛋OR迪亞布囉? 12/20 22:37
89F:推 dp44:我覺得是7封王那種的 12/20 22:37
90F:推 bookticket:其實怕消到火珠 可以空轉就好 12/20 22:37
91F:推 rabbit50331:塞一隻水史萊姆完美解決火符石 12/20 22:37
92F:推 snowcs:這個起始三圍,練滿應該接近北歐神 12/20 22:37
93F:推 losestimmy:人妖隊 12/20 22:38
94F:推 chenchunjui:可以開個三巫加成200%嗎 好難抽~~ 12/20 22:38
95F:推 trymore:三巫滿等...讚... 12/20 22:38
96F:→ ruj9vul3:我五主缺肖恩 三巫缺火巫(淚 12/20 22:38
97F:推 ariasonata:龍隊淚推 12/20 22:38
98F:推 gary360:不能消除火珠的意思是:就算連到三顆火珠 也會放在那裏不消 12/20 22:38
99F:推 funnyboy1104:三巫也滿等了... 老公公發威了... 12/20 22:39
100F:→ gary360:比照七封王 12/20 22:39
101F:推 charles4483:鍵盤組隊 老人 木巫 水遊 安多 暗蛋 妲己 12/20 22:40
102F:推 comesome:感覺是消到就當做失敗 12/20 22:40
103F:推 chenchunjui:滿技最多CD10 而且一等那三圍 隊員再放一隻都OK 12/20 22:40
104F:推 whalefirst:只有一回合可用?? 12/20 22:40
105F:推 five5six6:老人主動技+妲己U轉+解放五主 OP... 12/20 22:41
106F:→ jinkela1:覺得消到火石當失敗論比較合理 也較考驗玩家技巧 12/20 22:42
107F:→ jinkela1:不然火隊排珠變的太無腦 12/20 22:42
108F:→ shinobilin:薑還是老的辣 12/20 22:42
109F:推 HMKRL:老人四主妲己隊,回復力媲美強權啊 12/20 22:42
110F:推 q43128:耶,我的三巫中於可以開始練技能了 12/20 22:42
111F:推 QJP0518:消到會失效就直接轉1C不然空轉就好 12/20 22:43
112F:→ gary360:我敢說是不會消~像打七封王那樣 12/20 22:43
113F:推 GoodElephant:人類隊!! 木遊俠要失業了嗎? 12/20 22:45
114F:推 snowcs:老實說就是強化版木遊(還不限種族),主動技能增1.5倍還不 12/20 22:45
115F:→ snowcs:錯,人類妖精爆發技能有限,大概就是三巫+解放五主+妲己U 12/20 22:45
116F:→ snowcs:轉 12/20 22:45
117F:推 Sawyer80:感覺配合波比應該會很強 12/20 22:45
118F:推 vance6313:這技能跟妲己 主角超搭 先放聖誕 妲己U排 下回合解放開 12/20 22:46
119F:→ libramog:會有隊伍技能嗎? 本來以為會跟小精靈是一伙的 12/20 22:46
120F:→ vance6313:扁 12/20 22:46
121F:推 suuigche21:火希跟聖誕老公公八字不合? 12/20 22:48
122F:推 obafgkm:所以安多解放另兩隻隨意嗎 12/20 22:49
123F:推 sam87070:三巫隊,吼吼吼~~~~ 12/20 22:49
124F:推 waveking:人馬+三巫+火主+老人op啊 12/20 22:49
125F:推 kyle77616:我也覺得應該是不能消到,不然真的太無腦了,除非是寫無 12/20 22:50
126F:→ kyle77616:法消除。 12/20 22:50
127F:推 cfs:抱怨七封的人呢 @@ ? 如果技能為真 不覺得你們抱怨太急嗎 12/20 22:50
128F:推 justsay:七封難跟新卡有啥關係 還是你打到就能拿它速破七封? 12/20 22:51
129F:→ kyle77616:人馬是神吧@@ 12/20 22:51
130F:→ cfs:至少好打不少吧 高回高攻代表 也沒人說一定要秒破呀... 12/20 22:52
131F:推 d93782529:不知道兩隻老公公的主動技能不能疊 12/20 22:53
132F:推 justsay:高攻高回還不是得面對R1惡意地精 12/20 22:53
133F:推 Terminator99:爽,遊俠隊正式起飛 12/20 22:55
134F:推 chenchunjui:人類隊的血量 地精更容易秒巴 12/20 22:55
135F:推 waveking:只是要人馬的追打而已 12/20 22:55
136F:噓 DearDaniel:cfs有何問題??? 不管這情報真假 七封的地精跟這有關係? 12/20 22:55
137F:→ cfs:大家不就要求0石通關而已...好像每場都雙地精 12/20 22:56
138F:推 OyAlbert:媽阿,搭個根性的配巫女根本就飛到不知哪去了? 12/20 22:56
139F:推 aberladada:雜色不不卡珠秒他就好ler (理想面 12/20 22:57
140F:推 huangin:http://ppt.cc/eXTX 所以有聖誕老人就可以通過這開場? 12/20 22:57
141F:→ patrol:應該有削弱過 主動技能有點無力... 12/20 22:57
142F:→ huangin:不過如果用聖誕老人組三巫五主雜色...確實就不怕雙地精 12/20 22:58
143F:推 justsay:抱怨七封不就在說小怪惡意跟堆疊數據 看不出新卡有何轉機 12/20 22:58
144F:→ patrol:血夠撐住雙地精連擊嗎... 12/20 22:59
145F:→ cfs:6.25攻的確是滿有希望直接秒地精呀 12/20 22:59
146F:→ Ethric:史王強權串5心就過了(?) 12/20 22:59
147F:→ DearDaniel:進場兩隻木地精 一樣難打啦 愛釣魚又沒本事zzz 12/20 23:00
148F:推 aberladada:組妲己拉全體5C一色不要木應該就可以KO火地精惹 12/20 23:00
149F:推 squall304:我也覺得雜色隊不卡珠 要秒雙地精不難 12/20 23:00
150F:→ cfs:阿不就每場都雙CD1地精... 12/20 23:00
151F:推 jimmy3137:人妖隊起飛啦 !!!! 12/20 23:00
152F:→ DearDaniel:那這樣每場都雜色老人 樂趣又在那zz 12/20 23:01
153F:→ aberladada:農肥求穩就好吧 (in火關木關的話 12/20 23:01
154F:→ cfs:#1IijS0dN 12/20 23:01
155F:→ aberladada:光暗水應該還是可以純色轟 12/20 23:02
156F:→ cfs:懶人包 : 1R就遇到CD1地精且主屬珠不足珠情況約只有1/50 12/20 23:02
157F:推 lai97:人妖隊 正式登場 12/20 23:02
158F:→ focustage:Cfs等你po聖誕老人七封心得 千萬不要用石抽卡喔 12/20 23:02
159F:→ cfs:我有說我不用石抽卡嗎...都到七封了還沒石抽卡也是很強 12/20 23:03
160F:→ aberladada:我用遊俠就可以打火7-1了 只是要蠻專心的就是了... 12/20 23:03
161F:→ cfs:我說七封有老人(如果技能為真) 目前看來是好過不少 12/20 23:04
162F:推 focustage:所以不懂你在說什 沒三巫七封會變簡單 12/20 23:04
163F:推 ayabf:喔 這隻原來是七封救世主喔? 想必某大大已經試用過這隻了 12/20 23:05
164F:→ cfs:就我的感覺是 變化變多 遊戲應該能撐更久吧 12/20 23:05
165F:→ cfs:主角呢... 遊俠呢? 我是覺得會滿有希望啦 12/20 23:05
166F:推 aberladada:組個老公公主角隊傷害就潮猛的了 12/20 23:06
167F:推 dixongossip:老人 三巫 海拉 老人 (如果有王是CD3的話XD) 12/20 23:06
168F:→ cfs:人類不是只有三巫吧... 12/20 23:07
169F:→ cfs:不過水7-3那種靠北關卡倒是其次啦= = 我也是打一次先放棄 12/20 23:08
170F:→ justsay:當然這支不弱 只是談"有趣"的話我是覺得沒啥新意 12/20 23:08
171F:推 WindowsXP:如果技滿是CD5的話..... 12/20 23:08
172F:噓 j3526147j:到底人馬還是老人好啦 囧 三巫已猶豫 12/20 23:08
173F:→ Ethric:但体力需求高達25.所以你每進入七封一次.系統偷走你自動回 12/20 23:08
174F:→ Ethric:復5分鐘的体力 12/20 23:09
175F:→ cfs:當然沒解決體力問題呀... 我只說變好打耶 如果很care體力 12/20 23:10
176F:→ cfs:可以等體半看看 12/20 23:10
177F:推 j3526147j:補 12/20 23:10
178F:推 cfs:三主角還有隱藏回覆 很看好這隊呀 12/20 23:12
179F:推 whalefirst:三主角好難抽 還沒抽過主角 12/20 23:12
180F:→ kuso2005:http://ppt.cc/UQiA 好羨慕啊!!!!! 12/20 23:12
181F:推 permoon:人馬不可能失業,除非聖誕老人三圍op到逆天 12/20 23:14
182F:推 tomatoo:cfs 主角隱藏回復能詳細一下嗎? 12/20 23:15
183F:→ permoon:否則以主動技來看,人馬還是好用一點 12/20 23:15
184F:→ permoon:而隊長技則見仁見智,人馬只能打單體但可吃所有種族 12/20 23:15
185F:→ permoon:光是人馬三巫搭水妹or獅子就很難被取代了 12/20 23:16
186F:推 cfs:三主角有類似遊俠那種加成 回復1.3倍 4主角1.4 12/20 23:16
187F:推 whalefirst:kuso的不要點 廣告 12/20 23:16
188F:→ foreverk:其實缺點應該就是血量了 12/20 23:17
189F:噓 ncueBenson:kuso2005 12/20 23:18
190F:推 teddying:說真的 轉珠技巧有點高 自認不行 會疊的話真的超威 12/20 23:20
191F:推 whalefirst:kuso2005的連結不要點 可以水桶他嘛 12/20 23:21
192F:→ kuso2005:獵人合作全圖鑑和地下城,有興趣的可以跳坑 12/20 23:23
193F:→ chenchunjui:... 12/20 23:24
194F:→ jinkela1:有蜘蛛旅團耶(誤 12/20 23:25
195F:→ jinkela1:說真的 桶一桶吧 12/20 23:26
196F:推 g29050:宣傳這個是哪招 12/20 23:26
197F:→ foreverk:就鬧版啊 12/20 23:27
198F:→ ffaatt:要跳也是跳出去 還有什麼動力玩一樣的遊戲 12/20 23:28
199F:推 kess:人+妖 2.5攻擊感覺過強 12/20 23:29
200F:→ hn85017889:如果隊長技真的這樣,那我已經搭好了就薩肥,三巫 12/20 23:30
201F:推 tim201227:這是甚麼鬼卡 下周比我把缺的木巫也抽起來嗎= = 12/20 23:34
202F:推 drajan:人類起飛...環繞地球一圈了 人妖隊真的太可怕 12/20 23:34
203F:推 lu3yao:還有修正餘地啦 這隊長技出來會取代掉太多人 應該不至於(吧 12/20 23:34
204F:→ lu3yao:人&妖兩倍這樣就正常多了 12/20 23:35
205F:→ drajan:老人+妲己 中間搭三巫&肖恩 U轉一波流超殺 12/20 23:35
206F:→ lu3yao:另外還有轉珠轉到死隊: 老人 三主 糜鹿 妲己 12/20 23:36
207F:→ foreverk:還是有缺點啊,人妖隊永遠的痛:強化盾 12/20 23:38
208F:推 RaiGend0519:人妖隊...太扯了 12/20 23:40
209F:推 goodsnk:太誇張了 12/20 23:40
210F:→ whisky520:哪個隊伍沒缺點..什麼話 12/20 23:40
211F:推 bookticket:強化盾? 放隻大史就解決了~ 12/20 23:41
212F:→ foreverk:所以我是在說他有缺點,沒有強到取代很多人的地步啊 12/20 23:41
213F:→ foreverk:放大史你血量會很難看 12/20 23:42
214F:→ bookticket:人+妖 就能放大史 就能解決強化盾的問題拉XD 12/20 23:42
215F:→ foreverk:而且放大地精配大樹才對吧 12/20 23:42
216F:→ bookticket:聖誕老人的血夠多可以cover了 尤其雙聖誕老人時~ 12/20 23:43
217F:→ bookticket:聖誕老人+三巫or三主 +大史+ 聖誕老人 12/20 23:43
218F:→ foreverk:你排看看就知道了 12/20 23:44
219F:→ foreverk:大史是跑出強化心珠,是要幹嘛啦 12/20 23:45
220F:推 cfs:舊五主快出來救援!!! 12/20 23:45
221F:→ wait945:放大史是為了轉掉火珠嗎? 12/20 23:46
222F:推 bookticket:剛打錯 有強化盾問題 陣容應該改成: 12/20 23:48
223F:→ bookticket:聖誕老人+火巫+三太子+任一隻 +大史+ 聖誕老人 12/20 23:49
224F:→ bookticket:大史先木轉強心 三太子強心轉火 就破掉強化盾了 12/20 23:50
225F:→ wait945:變6.25火隊了 12/20 23:50
226F:→ bookticket:大史雖然血少 但整個隊伍基本上還是有一萬二up的血量 12/20 23:51
227F:→ foreverk:你講的陣容放六星火主,老人hp假設是剛剛推測的2600,血 12/20 23:52
228F:→ foreverk:只有一萬三而已 12/20 23:52
229F:→ bookticket:基本上只是為了強化盾而特化出來的隊伍 平常當然不必這 12/20 23:52
230F:→ bookticket:樣組阿XD 12/20 23:52
231F:推 whalefirst:大史要去哪打/ 12/20 23:52
232F:推 potato6202:然後被七封的地精打死了 12/20 23:52
233F:→ wait945:大史要自己養大 中史打6封 12/20 23:53
234F:→ foreverk:這是要全滿等陣容,有強化盾的場合要解就要面臨低血量 12/20 23:53
235F:推 AndFly:問一下 主角回復加乘吃的到水巫嗎 12/20 23:53
236F:→ whalefirst:那有小史嘛 ? 30級的史萊姆? 12/20 23:53
237F:→ foreverk:所以說是缺點啊 12/20 23:53
238F:推 thekfc24:木游失業倒數… 12/20 23:53
239F:→ bookticket:血量一萬三 雖然比不上雙北雙澳丁 但也算夠用了~ 12/20 23:53
240F:→ wait945:聖誕老人+火巫+三太子+火主+大史+聖誕老人<-變火隊了@@ 12/20 23:54
241F:推 gjmanhaha:主角的可以吃到水巫,異界龍的也可以 12/20 23:54
242F:→ bookticket:七封平常沒強化盾的關 又沒人叫你組這隊去打XD 12/20 23:54
243F:→ foreverk:一萬三別說七封,其他地方都不是說太穩的血量了,恢復很 12/20 23:55
244F:→ foreverk:高是沒錯,但是人類血量一直都不多啊 12/20 23:55
245F:→ gjmanhaha:火人妖隊起飛XDD 新隊伍出現啦,6.25火人妖隊!!! 12/20 23:55
246F:推 andy3580:1萬3的血很夠了 1萬5的血還不是被地精秒殺 沒屁用 12/20 23:56
247F:→ bookticket:就說了阿 這是為了強化盾才特化的隊伍 平常又不用放大 12/20 23:56
248F:→ gjmanhaha:7封無視他吧,我組三奧的隊伍卡珠還是掰掰XD 地精:呵呵~ 12/20 23:56
249F:→ bookticket:史~ 12/20 23:56
250F:推 cacasi:還好我都用木遊組妹子們刷肥,不影響... 12/20 23:57
251F:→ foreverk:不放大史他一樣是個滿等血偏低的隊伍,我不知道爭這點 12/20 23:57
252F:→ andy3580:玩家的血量跟本追不上怪的功擊 乾脆直接放棄血量 12/20 23:57
253F:→ foreverk:幹嘛 12/20 23:58
254F:推 AndFly:那老人 水火暗三主 水巫 妲己應該打很痛 12/20 23:58
255F:→ bookticket:沒強化盾的問題 大史地位址就改放大樹 大樹的主動技 12/20 23:58
256F:→ andy3580:全部追求火力 12/20 23:58
257F:→ gjmanhaha:同意,除了先攻盾以外,血量已經快要不是考量的點了 12/20 23:58
258F:→ bookticket:可以轉出心珠 可以保命 或要放其他腳色也無不可~ 12/20 23:58
259F:→ patrol:如果滿等回復5xx 二朱雀二波比二聖誕加權回復力有4400+ !! 12/20 23:59
260F:→ bookticket:血量低本來就不是重點阿 先提出血量低的好像不是我@@ 12/20 23:59
261F:→ bookticket:而且我覺得底多說是不高而以 還不算是很低@@ 12/21 00:00
262F:推 cacasi:而且這張卡屁股跟奧丁一樣大,等級不夠的還是人馬木遊好用 12/21 00:01
263F:→ patrol:五主回復加成應該沒這麼威吧? 所以還是火強權神卡? 12/21 00:02
264F:→ bookticket:人馬應該不至於到失業拉~人馬還可以組雜色的神魔隊 12/21 00:02
265F:→ andy3580:我破7封外圍就用兩隊 安妲跟史王 血量都不足14000 12/21 00:02
266F:→ foreverk:改放大樹變一萬五好一點沒錯啦,只是沒大樹的就... 12/21 00:03
267F:→ andy3580:除了水7-3無解外都可0石 12/21 00:03
268F:→ bookticket:但木遊真的就被搶工作搶得很心酸就是了orz 12/21 00:03
269F:推 gjmanhaha:五主回復加成3隻就1.3了耶,相當於每隻都接近500了 12/21 00:05
270F:→ foreverk:本來就只是說人妖隊有血量偏低+強化盾的缺點啊 12/21 00:05
271F:→ gjmanhaha:配上水巫 攻擊力硬生生多了將近1200 還不夠好嗎? = = 12/21 00:05
272F:→ foreverk:加上其他種種情況,沒有到取代很多人的地步 12/21 00:06
273F:推 andy3580:人馬在三巫雜色隊的地位憑這張卡是取代不了的 12/21 00:06
274F:推 SAYYA:2.5… 人類要起飛啦 12/21 00:06
275F:推 ra21844:人類的意志!! 12/21 00:06
276F:推 AndFly:對啊 老人 水火暗主 水巫 妲己 可以水火暗三連暴 12/21 00:06
277F:→ andy3580:雙聖誕加三巫的爆發倍率 輸人馬輸的很慘 又要等一回合 12/21 00:07
278F:→ gjmanhaha:現在的卡還是跟7封扯不太上邊啦,血量只有奧丁才能克服 12/21 00:07
279F:→ gjmanhaha:強化頓這點也沒啥好提的,除了希臘跟有雙子的洛妲其他隊 12/21 00:08
280F:→ andy3580:這張卡拿去配遊俠跟主角吧 看能不能生出新的強隊 12/21 00:08
281F:→ foreverk:就是人妖配多新玩法而已 12/21 00:08
282F:→ gjmanhaha:還不是都會有一樣的問題,雙北奧也是要等cd到才能開阿 12/21 00:08
283F:→ foreverk:純色隊至少有北歐可解吧 12/21 00:09
284F:推 gjmanhaha:現在強化盾關卡少得可憐,除了奧丁以外的關卡也沒幾關 12/21 00:10
285F:推 y35246357468:隊長技!!!!!!!! 可憐的木遊XDDDD 12/21 00:11
286F:→ gjmanhaha:整個7封+地獄級也沒有幾關強化盾的關卡,不用太緊張 12/21 00:11
287F:→ gjmanhaha:7封是一個你稱血到極致(雙光遊)或是高回到極致(強權) 12/21 00:13
288F:→ foreverk:就和遊俠獸隊一樣的問題,如果技術高超能轉珠解我沒意見 12/21 00:13
289F:→ gjmanhaha:就可以順利的摩過的關卡,除了少數講求爆發外都可以過 12/21 00:13
290F:→ gjmanhaha:而且就跟沒人想不開拿雙光遊去打砍%數的王一樣,真遇到 12/21 00:14
291F:→ gjmanhaha:強化盾關卡換隊打就好了阿,也不用聖誕老公公玩到底吧.. 12/21 00:15
292F:→ foreverk:所以我說"這隊"缺點是強化盾啊 沒人說要聖誕老人玩到底 12/21 00:16
293F:→ foreverk:我不懂這跟說"希臘缺點是COMBO盾"有甚麼不一樣 12/21 00:16
294F:推 chenchunjui:強化盾只要預存強珠 遇到妲己還不是跪下 12/21 00:18
295F:→ gjmanhaha:這缺點對很多隊都是缺點啦,現在都只是討論階段而已 12/21 00:19
296F:推 lkk0752:隊長技OP 但這主動技值得嗑石去拼積分拿MAX嗎 12/21 00:19
297F:→ gjmanhaha:而且很明顯這隊除了大史能產強珠外,還有啥辦法? 12/21 00:20
298F:→ foreverk:看他滿技多少,CD5當然打 12/21 00:20
299F:→ gjmanhaha:一直提強化盾是缺點真的沒啥必要的,有眼睛都看得出來 12/21 00:20
300F:→ foreverk:有嗎,一堆人不是在上面講可以無視,血量一萬三也不是問 12/21 00:22
301F:→ foreverk:題,卡是很強沒錯,要說取代很多人就算了吧 12/21 00:22
302F:→ gjmanhaha:至少這張卡不會太爛,讓組合更靈活就夠了,取代看個人 12/21 00:24
303F:→ foreverk:我沒說他爛啊,我只是說個血量跟強化珠變現在這樣,我哪 12/21 00:25
304F:→ foreverk:知道怎麼回事lol 12/21 00:25
305F:→ foreverk:至少現在的積分門檻可以讓中新手入個公會就拿到卡,之後 12/21 00:27
306F:→ foreverk:練等就能有王卡用,光這點就值得 12/21 00:27
307F:推 luke2:其實你可以找聖誕老人配人馬 12/21 00:30
308F:→ gjmanhaha:我猜是因為大家一頭熱,然後你潑了一點冷水吧,阿災 12/21 00:30
309F:推 luke2:c神這麼會打七封怎麼不PO一篇心得文來造福版眾 12/21 00:34
310F:→ edshen:大麥克跟釣魚哥認真了 12/21 01:12
311F:→ ianencored:安安幾歲住哪 12/21 01:36
312F:推 GAIEGAIE:這太扯了吧 12/21 01:38
313F:推 kuo3027:乾之前的蛋要發出聖光了嘛 12/21 01:44
314F:推 eternalwrath:.......... 根本不給木遊活路阿 XDDD 12/21 01:54
315F:推 rainbow52034:哈… 12/21 02:15
316F:推 t4103m973:我感覺背包守護神木巨像在呼叫我了 12/21 02:17
317F:推 macjohn03:木遊掰 12/21 02:24
318F:推 kyo547896321:人妖隊!!!! 12/21 02:30
319F:噓 BruceChien:老人 老人 火巫 三太子 肖恩 老人 ,怒噓想紅的人類XD 12/21 08:18
320F:→ eimmsert:哈斯 老人我來了 12/21 08:32
321F:推 shaojun:人類:I believe I can FLY!!! 12/21 09:57
322F:→ kevin810:老人該不會一個人最多只能拿到1~2張吧 12/21 11:23







like.gif 您可能會有興趣的文章
icon.png[問題/行為] 貓晚上進房間會不會有憋尿問題
icon.pngRe: [閒聊] 選了錯誤的女孩成為魔法少女 XDDDDDDDDDD
icon.png[正妹] 瑞典 一張
icon.png[心得] EMS高領長版毛衣.墨小樓MC1002
icon.png[分享] 丹龍隔熱紙GE55+33+22
icon.png[問題] 清洗洗衣機
icon.png[尋物] 窗台下的空間
icon.png[閒聊] 双極の女神1 木魔爵
icon.png[售車] 新竹 1997 march 1297cc 白色 四門
icon.png[討論] 能從照片感受到攝影者心情嗎
icon.png[狂賀] 賀賀賀賀 賀!島村卯月!總選舉NO.1
icon.png[難過] 羨慕白皮膚的女生
icon.png閱讀文章
icon.png[黑特]
icon.png[問題] SBK S1安裝於安全帽位置
icon.png[分享] 舊woo100絕版開箱!!
icon.pngRe: [無言] 關於小包衛生紙
icon.png[開箱] E5-2683V3 RX480Strix 快睿C1 簡單測試
icon.png[心得] 蒼の海賊龍 地獄 執行者16PT
icon.png[售車] 1999年Virage iO 1.8EXi
icon.png[心得] 挑戰33 LV10 獅子座pt solo
icon.png[閒聊] 手把手教你不被桶之新手主購教學
icon.png[分享] Civic Type R 量產版官方照無預警流出
icon.png[售車] Golf 4 2.0 銀色 自排
icon.png[出售] Graco提籃汽座(有底座)2000元誠可議
icon.png[問題] 請問補牙材質掉了還能再補嗎?(台中半年內
icon.png[問題] 44th 單曲 生寫竟然都給重複的啊啊!
icon.png[心得] 華南紅卡/icash 核卡
icon.png[問題] 拔牙矯正這樣正常嗎
icon.png[贈送] 老莫高業 初業 102年版
icon.png[情報] 三大行動支付 本季掀戰火
icon.png[寶寶] 博客來Amos水蠟筆5/1特價五折
icon.pngRe: [心得] 新鮮人一些面試分享
icon.png[心得] 蒼の海賊龍 地獄 麒麟25PT
icon.pngRe: [閒聊] (君の名は。雷慎入) 君名二創漫畫翻譯
icon.pngRe: [閒聊] OGN中場影片:失蹤人口局 (英文字幕)
icon.png[問題] 台灣大哥大4G訊號差
icon.png[出售] [全國]全新千尋侘草LED燈, 水草

請輸入看板名稱,例如:Tech_Job站內搜尋

TOP